Regional Weather Roundup
Issued by NWS

Home | Current Version | Previous Version | Text Only | Print | Product List | Glossary On
Versions: 1 2 3 4 5 6 7 8 9 10 11 12 13 14 15 16 17 18 19 20 21 22 23 24 25 26 27 28 29 30 31 32 33 34 35 36 37 38 39 40 41 42 43 44 45 46 47 48 49 50
793
ASUS43 KTOP 231759
RWRKS

WEATHER ROUNDUP FOR KANSAS
NATIONAL WEATHER SERVICE GOODLAND KS
100 PM CDT MON OCT 23 2017

NOTE:  "FAIR" INDICATES FEW OR NO CLOUDS BELOW 12,000 FEET WITH NO
SIGNIFICANT WEATHER AND/OR OBSTRUCTIONS TO VISIBILITY.

KSZ001>006-013>018-027>032-041>047-231900-
NORTHWEST KANSAS

CITY           SKY/WX    TMP DP  RH WIND       PRES   REMARKS
GOODLAND       PTSUNNY   60  17  18 N25G43    30.34R
6HR MIN TEMP:  48; 6HR MAX TEMP:  60;

HAYS           SUNNY     63  30  28 N31G38    30.20S
HILL CITY      CLOUDY    63  30  28 N22G37    30.27R
6HR MIN TEMP:  56; 6HR MAX TEMP:  65;

RUSSELL        LGT RAIN  67  30  25 N29G38    30.18R
6HR MIN TEMP:  53; 6HR MAX TEMP:  67; 6HR PCP: TRACE;

$$

KSZ061>065-074>080-084>089-231900-
SOUTHWEST KANSAS

CITY           SKY/WX    TMP DP  RH WIND       PRES   REMARKS
DODGE CITY     SUNNY     65  31  28 N24G38    30.26S
6HR MIN TEMP:  48; 6HR MAX TEMP:  66;

ELKHART          N/A     59  34  39 N18         N/A
GARDEN CITY    SUNNY     62  32  32 N22G33    30.30F
6HR MIN TEMP:  48; 6HR MAX TEMP:  62; 6HR PCP: TRACE;

GREAT BEND     SUNNY     65  31  28 N23       30.19R
LIBERAL        CLOUDY    64  37  36 N20G35    30.30S
$$

KSZ066>073-081>083-090>101-231900-
SOUTHEAST KANSAS

CITY           SKY/WX    TMP DP  RH WIND       PRES   REMARKS
CHANUTE        PTSUNNY   65  41  41 N18G28    30.01F
6HR MIN TEMP:  46; 6HR MAX TEMP:  67;

COFFEYVILLE    MOSUNNY   68  43  40 N18G29    30.02R
6HR MIN TEMP:  43; 6HR MAX TEMP:  69;

HUTCHINSON     SUNNY     70  35  27 N22G31    30.13R
6HR MIN TEMP:  44; 6HR MAX TEMP:  71; 6HR PCP: TRACE;

NEWTON         SUNNY     68  39  34 N29G36    30.10R
PARSONS        PTSUNNY   67  42  40 N13G23    30.03R
6HR MIN TEMP:  43; 6HR MAX TEMP:  67; 6HR PCP: TRACE;

WICHITA INTL   MOSUNNY   70  41  34 N22       30.10S
6HR MIN TEMP:  43; 6HR MAX TEMP:  70;

WICHITA JABRA  SUNNY     69  41  36 N25G36    30.09S
6HR MIN TEMP:  49; 6HR MAX TEMP:  69;

WICHITA MCCONL SUNNY     69  39  34 N22G31    30.09S
WINFIELD       SUNNY     69  42  37 N20G33    30.10R
6HR MIN TEMP:  47; 6HR MAX TEMP:  70;

$$

KSZ007>012-019>026-033>040-048>060-102>105-231900-
NORTHEAST KANSAS

CITY           SKY/WX    TMP DP  RH WIND       PRES   REMARKS
CONCORDIA      MOSUNNY   63  30  28 NW26G36   30.13R
6HR MIN TEMP:  51; 6HR MAX TEMP:  65;

EMPORIA        SUNNY     68  40  35 N22G37    30.05S
6HR MIN TEMP:  48; 6HR MAX TEMP:  68;

LAWRENCE       CLOUDY    64  43  46 NW17G28   29.99S
6HR MIN TEMP:  41; 6HR MAX TEMP:  66; 6HR PCP: TRACE;

MANHATTAN      SUNNY     68  36  30 N13G28    30.07R
6HR MIN TEMP:  42; 6HR MAX TEMP:  69;

OLATHE IND     CLOUDY    64  42  44 N21G32    29.99S
6HR MIN TEMP:  42; 6HR MAX TEMP:  65;

OLATHE EXE     CLOUDY    63  40  42 N18G24    29.98S
6HR MIN TEMP:  45; 6HR MAX TEMP:  63;

SALINA         SUNNY     70  32  24 NW33G41   30.12S
6HR MIN TEMP:  47; 6HR MAX TEMP:  71; 6HR PCP: TRACE;

TOPEKA BILLARD CLOUDY    67  44  43 NW15G25   30.00F
6HR MIN TEMP:  40; 6HR MAX TEMP:  67;

TOPEKA FORBES  CLOUDY    68  43  40 N26G33    30.00F
6HR MIN TEMP:  45; 6HR MAX TEMP:  68;

$$




USA.gov is the U.S. government's official web portal to all federal, state and local government web resources and services.